Location: Karcze
(52.0945°N, 22.4786°E)
Time: 23:09:16
(UTC+00:00)

Transit 4A - Pass Details

Date: 01 August 2021
Orbit: 871 x 974 km, 66.8° (Epoch: 18 September)

Event Time Altitude Azimuth Distance (km) Brightness Sun altitude
Exits shadow 22:47:11 34° 209° (SSW) 1,398 8.4 -20.1°
Maximum altitude 22:49:50 82° 126° (SE) 889 7.7 -20.1°
Drops below altitude 10° 22:55:41 10° 40° (NE) 2,529 10.9 -20.0°
Sets 22:58:10 0° 40° (NE) 3,472 11.8 -20.0°
